This demonstration page uses our WeatherBlox Daily Observations layout. Learn more.

Left ArrowRight Arrow

38.88101, -77.10428

Hourly Observations for December 15, 2015

Temp ( °F °C ) Dew Point ( °F °C ) Humidity (%) Winds ( mph kmh ) Pressure ( in mb ) Visibility ( mi km ) Precip ( " mm )
12:52 am 00:52 Partly Cloudy 66 18.9 61 16.1 84 84 SW 10 17 29.47 998 10 16 N/A
1:52 am 01:52 Mostly Cloudy 65 18.3 59 15 81 81 NNW 12 19 29.50 999 10 16 N/A
2:52 am 02:52 Mostly Cloudy 65 18.3 55 12.8 70 70 WSW 5 7 29.53 1000 10 16 N/A
3:52 am 03:52 Mostly Cloudy 59 15 55 12.8 87 87 SW 3 6 29.54 1000 10 16 N/A
4:52 am 04:52 Cloudy 64 17.8 51 10.6 63 63 NW 10 17 29.57 1001 10 16 N/A
5:52 am 05:52 Cloudy 62 16.7 46 7.8 56 56 WNW 15 24 29.60 1002 10 16 N/A
6:52 am 06:52 Mostly Cloudy 58 14.4 47 8.3 67 67 NNW 18 30 29.64 1004 10 16 N/A
7:52 am 07:52 Mostly Cloudy 59 15 44 6.7 58 58 NNW 20 31 29.68 1005 10 16 N/A
8:52 am 08:52 Partly Cloudy 59 15 40 4.4 49 49 NW 18 30 29.71 1006 10 16 N/A
9:52 am 09:52 Partly Cloudy 60 15.6 40 4.4 47 47 NW 16 26 29.74 1007 10 16 N/A
10:52 am 10:52 Partly Cloudy 60 15.6 40 4.4 47 47 WNW 15 24 29.76 1008 10 16 N/A
11:52 am 11:52 Partly Cloudy 61 16.1 41 5 48 48 NW 22 35 29.75 1008 10 16 N/A
12:52 pm 12:52 Partly Cloudy 61 16.1 41 5 48 48 WNW 10 17 29.75 1008 10 16 N/A
1:52 pm 13:52 Partly Cloudy 61 16.1 41 5 48 48 NW 15 24 29.77 1008 10 16 N/A
2:52 pm 14:52 Mostly Sunny 61 16.1 40 4.4 46 46 WNW 13 20 29.79 1009 10 16 N/A
3:52 pm 15:52 Mostly Sunny 60 15.6 39 3.9 46 46 W 13 20 29.81 1010 10 16 N/A
4:52 pm 16:52 Mostly Clear 57 13.9 39 3.9 51 51 NW 13 20 29.84 1010 10 16 N/A
5:52 pm 17:52 Mostly Clear 56 13.3 39 3.9 53 53 NW 12 19 29.87 1011 10 16 N/A
5:55 pm 17:55 Mostly Clear 56 13.3 39 3.9 53 53 NW 14 22 29.88 1012 10 16 N/A
6:52 pm 18:52 Mostly Clear 54 12.2 39 3.9 57 57 NW 12 19 29.89 1012 10 16 N/A
7:52 pm 19:52 Clear 53 11.7 39 3.9 59 59 NNW 10 17 29.91 1013 10 16 N/A
8:52 pm 20:52 Clear 51 10.6 38 3.3 61 61 NNW 10 17 29.94 1014 10 16 N/A
9:52 pm 21:52 Clear 49 9.4 38 3.3 66 66 NNW 8 13 29.96 1015 10 16 N/A
10:52 pm 22:52 Clear 48 8.9 37 2.8 66 66 NNW 7 11 29.98 1015 10 16 N/A
11:52 pm 23:52 Mostly Clear 48 8.9 36 2.2 63 63 NNW 7 11 30.00 1016 10 16 N/A

Powered by AerisWeather